Погода в Полтаве

Поиск расширенной информации на нашем сайте:

Полезная информация:

Новости сайта



02.01.2020
Опубликован Долгосрочный прогноз погоды по городам России и ближнего зарубежья на январь 2020 года.
Карты: Прогноз на январь и февраль 2020 года, Сравнение прогнозируемой аномалии приземной температуры воздуха на январь 2020 года по разным моделям.




Погода в Полтаве - сегодня

Время (UTC), дата Ветер
(°,м/с) 
Видим.   Явления Облачность Т
(°С)
Тd
(°С)
f(%) Тe
(°С)
Pmin
(гПа)
dP
(гПа)
Po
(мм)
O2
(г/м3)
Тmin Tmax R s Состояние
почвы
12 09.08.20 050 (СВ) 10 км    8/8 1000 м 
[Cu med, cong]
+27.8 +8.4 29 +28  1014.2  -1.1  747  272           
15 09.08.20 050 (СВ) 10 км    8/8 600 м 
[Cu Sc]
+27.2 +10.1 34 +29  1013.4  -0.8  746  272           
18 09.08.20 010 (С) 10 км    6/3 600 м средняя 
[Sc|Ac trans]
+23.6 +13.1 52 +29  1014.1  0.5  747  274    +29.7       
21 09.08.20 320 (СЗ) 10 км    8/0 средняя 
[Ac trans]
+20.4 +13.4 64 +27  1014.6  0.3  747  277           
00 10.08.20 010 (С) 10 км    9/9 600 м 
[Sc]
+20.8 +14.5 67 +29  1014.1  -0.4  747  277           
03 10.08.20 010 (С) 10 км    6/3 600 м средняя 
[Sc|Ac trans]
+17.4 +14.3 82 +27  1014.7  0.3  747  280           
06 10.08.20 050 (СВ) 10 км    4/0 средняя 
[Sc|Ac trans]
+20.5 +13.7 65 +27  1014.5  747  277  +17.3         
09 10.08.20 050 (СВ) 10 км    8/8 1000 м 
[Cu med, cong]
+28 +10.8 34 +30  1013.8  -0.2  747  271           
12 10.08.20 050 (СВ) 10 км    9/8 600 м средняя 
[Sc|Ac trans]
+28.1 +10 32 +29  1013  -0.8  746  271           
15 10.08.20 340 (С) 10 км    9/8 600 м средняя 
[Sc|Ac trans]
+27.3 +11.7 38 +31  1012.5  -0.5  746  271           
18 10.08.20 240 (ЮЗ) 10 км  зарница  9/8 600 м кучево-дожд., средняя 
[Cb cap|Ac As]
+24.2 +12.4 48 +29  1013.4  0.7  746  274    +30.2       
21 10.08.20 350 (С) 10 км  зарница  10/0 кучево-дожд. 
[Cb cap]
+21.9 +14.6 63 +30  1013.7  0.1  746  275           
00 11.08.20 330 (СЗ) 10 км  в посл. час ливневой дождь  10/10 600 м кучево-дожд. 
[Cb cap]
+20.2 +15.5 74 +30  1013.9  0.1  746  277      0.0     
03 11.08.20 тихо ()   10 км    8/6 600 м кучево-дожд., средняя 
[Cb cap|Ac trans]
+19 +16 83 +30  1013.5  -0.4  746  278           
06 11.08.20 тихо ()   10 км  {ливн. осадки}  9/3 600 м средняя, верхняя 
[Sc diur, vesp|Ac cuf|Ci fib]
+23.6 +15.3 60 +33  1013.3  0.1  746  274  +18.2    0.1     
09 11.08.20 170 (Ю) 10 км  в посл. час ливневой дождь  9/6 600 м кучево-дожд., верхняя 
[Cb cap|Ci ing]
+21.3 +16.5 74 +33  1013.4  -0.1  746  275           
12 11.08.20 290 (З) 10 км  {ливн. осадки}  6/5 600 м кучево-дожд., средняя 
[Cb cap|Ac cuf]
+27.2 +12.7 41 +32  1012  -1  745  271         
15 11.08.20 090 (В) 10 км  гроза без осадков{ливн. осадки}  9/8 300 м кучево-дожд., средняя 
[Cb cap|Ac cuf]
+21.1 +16.8 76 +33  1012.7  0.3  746  275           
18 11.08.20 тихо ()   10 км  {гроза, ливн. осадки}  9/4 600 м средняя, верхняя 
[Sc diur, vesp|Ac As|Ci fib]
+21.3 +15.4 69 +31  1012.7  746  275    +28.7     
21 11.08.20 280 (З) 10 км    9/0 верхняя 
[Ci fib]
+18.2 +15.5 84 +29  1012.6  -0.3  745  278           
00 12.08.20 290 (З) 10 км    8/0 средняя, верхняя 
[Ac trans|Ci fib]
+16.8 +15.4 91 +28  1012.2  -0.5  745  280           
03 12.08.20 340 (С) 10 км    8/0 верхняя 
[Cc]
+15.8 +14.6 93 +25  1012.2  745  281           
06 12.08.20 320 (СЗ) 10 км    8/5 1000 м средняя, верхняя 
[Sc|Ac trans|Cc]
+19 +15.3 79 +29  1012.6  0.6  746  278  +15.6  -2.5       
09 12.08.20 340 (С) 10 км    8/8 600 м 
[Cu med, cong]
+22.1 +10.2 47 +24  1012.8  0.3  746  276           
12 12.08.20 300 (СЗ) 10 км    8/8 600 м 
[Cu Sc]
+24.1 +7.7 35 +24  1012.7  746  275           
Время (UTC), дата Ветер
(°,м/с) 
Видим.   Явления Облачность Т
(°С)
Тd
(°С)
f(%) Тe
(°С)
Pmin
(гПа)
dP
(гПа)
Po
(мм)
O2
(г/м3)
Тmin Tmax R s Состояние
почвы

Для получения пояснительной информации подведите курсор к названию столбца.

ПОГОДА в Полтаве - архив

Всё, что Вы хотите узнать о погоде в Полтаве - удобно и подробно!

Выберите нужную дату (начиная с 1 января 2019* года) и нажмите кнопку "Найти".
Будут отображены архивные сводки погоды по пункту Полтава, начиная с указанной даты.


Отображать данные в формате CSV (для использования в таблицах Excel)


Внимание! Наш архив погоды предназначен исключительно для личного некоммерческого использования в познавательных целях. Если Вам необходимы официальные справки о состоянии погоды (для производственных, юридических, коммерческих и т.п. целей), обращайтесь в органы Росгидромета.

*Примечание: данная дата относится к архиву по метеостанциям СССР (Россия, СНГ, Балтия).
Архив по метеостанциям Зарубежной Европы и Азии (кроме Китая) хранится 10 дней, по другим регионам земного шара (Китай, Африка, Америка, Австралия, Океания) - 1 день.

Полтава - район местоположения метеостанции


Название, широта, долгота, высота метеостанции:
Полтава 49.6°ш. 34.6°д. 160 м над ур. моря [Украина]

Дополнительная информация

В oтличие oт бoльшинства пoгoдных сайтoв мы публикуем пoдрoбную метеoинфoрмацию в детальнoм прoфессиoнальнoм фoрмате.

Характеристики температуры и влажнoсти вoздуха измеряются на высoте 2 м в тени вдали oт зданий и деревьев.
Скoрoсть ветра измеряется на высoте 10 м (на урoвне рoста челoвека скoрoсть ветра ниже в 1.5-2 раза). Если метеoстанция нахoдится в гoрoде или в лесу, тo скoрoсть ветра занижена на 2-4 м/с пo сравнению с oткрытым местoм. Скoрoсть ветра над акватoриями крупных рек и oзёр, а также на вершинах хoлмoв на 2-5 м/с выше, чем в oбычных услoвиях.
Атмoсфернoе давление в разных тoчках местнoсти мoжет значительнo oтличаться oт давления на метеoстанции, в зависимoсти oт услoвий рельефа (при пoдъёме на 10 м давление пoнижается примернo на 1 мм рт.ст.).